Kezdőlap
METAR-TAF:

METAR-TAF

Repülőterek :

Lac Qui Parle County Airport

Madison, Minnesota, Amerikai Egyesült Államok

földrajzi szélesség: 44-59-10N, földrajzi hosszúság: 096-10-40W, magasság: 330 m

Jelenlegi meteorológiai megfigyelések

A jelentés 29 perccel ezelõtt készült, 08:35 UTC
Északi szél 5 kt
Hőmérséklet -9°C
Páratartalom 85%
Légköri nyomás 1022 hPa
Látótávolság: 16.1 km
Borult 1700 lábon

METAR: KDXX 270835Z AUTO 01005KT 10SM OVC017 M09/M11 A3017 RMK AO2

Idő: 03:04 (09:04 UTC)


TAF: hiányzik

Meteorológiai megfigyelések és előrejelzések több, mint 4000 repülőtéren (METAR és TAF jelentéseket).

A térképen piros és sárga pontok jelzik az elérhető meteorológiai állomásokat.

Mozgassa az egeret a pont fölött, hogy megjelenjen az állomás neve.

Azután kattintson az időjárási megfigyelések és előrejelzések megtekintéséhez.

A térkép megváltoztatása: kattintson a fekete keresztel jelölt zöld gombra ráközelítéshez, a vonallal jelölt zöld gombra távolításhoz, vagy a zöld nyilakra a szomszédos térképek eléréséhez.


METAR-TAF: